CAL525 VHHH-RCTP

Flight info

Callsign CAL525
Flight time N/A
Altitude 31000
Route DALOL V631 ENVAR M750 TONGA TONGA1A
Aircraft B77W/H-SDE1E2E3FGHIJ2J3J4J5M1RWXY/LB1D1

Departure

Time 2026-05-04 06:48
Airport Hong Kong International Airport (VHHH)

Arrival

Time N/A
Airport Taiwan Taoyuan International Airport (RCTP)
Time Latitude Longitude Altitude Speed Heading
2026-05-04 06:11 22.30673 113.91800 42 ft 0 kts 71°
2026-05-04 06:35 22.30670 113.91791 41 ft 4 kts 71°
2026-05-04 06:36 22.30690 113.91690 42 ft 0 kts 160°
2026-05-04 06:40 22.30430 113.91436 42 ft 11 kts 251°
2026-05-04 06:40 22.30407 113.91355 42 ft 11 kts 269°
2026-05-04 06:40 22.30459 113.91294 42 ft 12 kts 339°
2026-05-04 06:40 22.30536 113.91266 42 ft 12 kts 341°
2026-05-04 06:41 22.30612 113.91237 42 ft 12 kts 340°
2026-05-04 06:41 22.30689 113.91208 42 ft 12 kts 341°
2026-05-04 06:41 22.30766 113.91179 42 ft 12 kts 341°
2026-05-04 06:41 22.30842 113.91151 42 ft 12 kts 341°
2026-05-04 06:42 22.30917 113.91123 42 ft 12 kts 341°
2026-05-04 06:42 22.30995 113.91093 40 ft 12 kts 341°
2026-05-04 06:42 22.31072 113.91065 42 ft 12 kts 341°
2026-05-04 06:44 22.31175 113.90615 41 ft 12 kts 251°
2026-05-04 06:44 22.31148 113.90529 41 ft 12 kts 251°
2026-05-04 06:44 22.31120 113.90444 41 ft 12 kts 250°
2026-05-04 06:45 22.31089 113.90347 41 ft 14 kts 251°
2026-05-04 06:45 22.31056 113.90246 41 ft 14 kts 251°
2026-05-04 06:45 22.31023 113.90144 42 ft 14 kts 251°
2026-05-04 06:45 22.30991 113.90043 42 ft 14 kts 251°
2026-05-04 06:46 22.30962 113.89950 42 ft 12 kts 257°
2026-05-04 06:46 22.31010 113.89884 42 ft 12 kts 339°
2026-05-04 06:46 22.31086 113.89858 41 ft 10 kts 356°
2026-05-04 06:46 22.31129 113.89905 42 ft 9 kts 70°
2026-05-04 06:48 22.33596 113.97935 3108 ft 242 kts 80°
2026-05-04 06:48 22.33887 113.99770 3869 ft 252 kts 82°
2026-05-04 06:49 22.34179 114.01684 4563 ft 269 kts 81°
2026-05-04 06:50 22.25125 114.08692 10451 ft 292 kts 186°
2026-05-04 06:51 22.22999 114.08666 10769 ft 321 kts 186°
2026-05-04 06:51 22.20662 114.08638 11043 ft 348 kts 185°
2026-05-04 06:51 22.18213 114.08915 11617 ft 368 kts 167°
2026-05-04 06:51 22.15930 114.10219 12554 ft 386 kts 146°
2026-05-04 06:52 22.14112 114.12451 13643 ft 400 kts 124°
2026-05-04 06:52 22.12846 114.15115 14397 ft 410 kts 120°
2026-05-04 06:52 22.11601 114.17922 15230 ft 417 kts 120°
2026-05-04 06:52 22.10314 114.20741 16150 ft 422 kts 121°
2026-05-04 06:53 22.08979 114.23575 17116 ft 426 kts 121°
2026-05-04 06:53 22.07454 114.26288 17897 ft 424 kts 135°
2026-05-04 06:53 22.05254 114.28328 18614 ft 414 kts 152°
2026-05-04 06:53 22.02828 114.30088 19243 ft 424 kts 150°
2026-05-04 06:54 22.00411 114.31946 20058 ft 428 kts 149°
2026-05-04 06:54 21.97998 114.33852 20938 ft 431 kts 149°
2026-05-04 06:54 21.95567 114.35778 21756 ft 435 kts 149°
2026-05-04 06:54 21.93109 114.37720 22529 ft 441 kts 149°
2026-05-04 06:55 21.90617 114.39682 23259 ft 446 kts 149°
2026-05-04 06:55 21.88092 114.41666 23887 ft 452 kts 148°
2026-05-04 06:55 21.85716 114.43899 24314 ft 464 kts 134°
2026-05-04 06:55 21.83998 114.46913 24777 ft 483 kts 115°
2026-05-04 06:56 21.83063 114.50395 25319 ft 487 kts 107°
2026-05-04 06:57 21.76683 114.75778 29660 ft 508 kts 108°
2026-05-04 06:58 21.75737 114.79437 30427 ft 507 kts 108°
2026-05-04 06:58 21.74789 114.83104 30894 ft 510 kts 108°
2026-05-04 06:58 21.74119 114.86863 30882 ft 513 kts 95°
2026-05-04 06:58 21.74066 114.90693 30914 ft 512 kts 90°
2026-05-04 06:59 21.74281 114.98343 30926 ft 512 kts 90°
2026-05-04 06:59 21.74369 115.05945 30924 ft 514 kts 91°
2026-05-04 07:01 21.74267 115.36840 30917 ft 515 kts 91°
2026-05-04 07:02 21.74247 115.44543 30916 ft 514 kts 92°
2026-05-04 07:02 21.74222 115.52236 30916 ft 513 kts 92°
2026-05-04 07:03 21.74194 115.59869 30916 ft 513 kts 92°
2026-05-04 07:03 21.74167 115.67547 30910 ft 512 kts 91°
2026-05-04 07:04 21.74138 115.75210 30929 ft 512 kts 91°
2026-05-04 07:04 21.74106 115.82876 30916 ft 512 kts 92°
2026-05-04 07:05 21.74069 115.90522 30925 ft 512 kts 92°
2026-05-04 07:05 21.74030 115.98148 30917 ft 512 kts 92°
2026-05-04 07:06 21.73964 116.09638 30922 ft 512 kts 92°
2026-05-04 07:07 21.73915 116.17322 30924 ft 512 kts 92°
2026-05-04 07:09 21.73685 116.48004 30923 ft 512 kts 92°
2026-05-04 07:09 21.73618 116.55665 30920 ft 512 kts 92°
2026-05-04 07:10 21.73549 116.63334 30920 ft 513 kts 92°
2026-05-04 07:12 21.78629 116.93130 30928 ft 514 kts 66°
2026-05-04 07:12 21.81294 117.00288 30922 ft 515 kts 67°
2026-05-04 07:13 21.83913 117.07477 30923 ft 516 kts 67°
2026-05-04 07:13 21.86491 117.14627 30923 ft 515 kts 68°
2026-05-04 07:14 21.92964 117.32615 30923 ft 514 kts 67°
2026-05-04 07:15 21.95547 117.39806 30925 ft 514 kts 67°
2026-05-04 07:15 21.98127 117.46997 30922 ft 515 kts 67°
2026-05-04 07:16 22.01239 117.53841 30917 ft 510 kts 56°
2026-05-04 07:16 22.04992 117.60340 30922 ft 510 kts 55°
2026-05-04 07:17 22.08738 117.66843 30923 ft 510 kts 56°
2026-05-04 07:17 22.12445 117.73378 30927 ft 510 kts 56°
2026-05-04 07:18 22.16134 117.79922 30937 ft 511 kts 56°
2026-05-04 07:18 22.19828 117.86483 30929 ft 511 kts 56°
2026-05-04 07:19 22.23494 117.92997 30931 ft 512 kts 56°
2026-05-04 07:19 22.27193 117.99572 30928 ft 512 kts 56°
2026-05-04 07:20 22.30951 118.06085 30936 ft 511 kts 54°
2026-05-04 07:20 22.34154 118.11507 30931 ft 511 kts 54°
2026-05-04 07:22 22.49126 118.37608 30924 ft 512 kts 56°
2026-05-04 07:23 22.52843 118.44187 30933 ft 512 kts 56°
2026-05-04 07:23 22.56554 118.50759 30933 ft 512 kts 56°
2026-05-04 07:24 22.60283 118.57322 30932 ft 511 kts 55°
2026-05-04 07:24 22.64024 118.63867 30932 ft 511 kts 55°
2026-05-04 07:26 22.78887 118.90001 30930 ft 510 kts 55°
2026-05-04 07:27 22.82603 118.96559 30927 ft 511 kts 56°